Location: Academy at Carrie F Thomas
(32.8490°N, 97.2053°W)
Time: 06:34:33
(UTC+00:00)

Meteor 2-15 Rocket - Pass Details

Date: 11 July 2022
Orbit: 939 x 956 km, 82.5° (Epoch: 12 August)

Event Time Altitude Azimuth Distance (km) Brightness Sun altitude
Rises 10:01:49 0° 358° (N) 3,634 8.1 -16.1°
Reaches altitude 10° 10:04:22 10° 2° (N) 2,683 7.4 -15.7°
Maximum altitude 10:10:25 59° 81° (E) 1,089 5.0 -14.7°
Drops below altitude 10° 10:16:24 10° 161° (SSE) 2,657 6.6 -13.7°
Sets 10:18:55 0° 165° (SSE) 3,596 7.2 -13.3°
